Iowa City, IA

8:00 PM CDT on August 22, 2017 (GMT -0500)
Iowa City Municipal

Weather History for KIOW - November, 2013

Change the Weather History Date:

Saturday, November 16, 2013

  Actual Average Record
Temperature  
Mean Temperature 50 °F 39 °F  
Max Temperature 63 °F 48 °F 72 °F (1954)
Min Temperature 37 °F 30 °F 6 °F (2014)
Degree Days  
Heating Degree Days 15 26  
Month to date heating degree days 382 360  
Since 1 July heating degree days 873 885  
Cooling Degree Days 0 0  
Month to date cooling degree days 0 0  
Year to date cooling degree days 1064 912  
Moisture  
Dew Point 50 °F    
Average Humidity 83    
Maximum Humidity 93    
Minimum Humidity 72    
Precipitation  
Precipitation T in 0.08 in 2.39 in (1961)
Month to date precipitation 0.50 1.37  
Year to date precipitation 33.90 33.78  
Sea Level Pressure  
Sea Level Pressure 29.58 in    
Wind  
Wind Speed 14 mph (SSE)    
Max Wind Speed 26 mph    
Max Gust Speed 38 mph    
Visibility 10 miles    
Events Thunderstorm    
T = Trace of Precipitation, MM = Missing Value Source: NWS Daily Summary

Daily Weather History Graph

Daily Weather History Graph

Search for Another Location

Airport or City:

Trip Planner

Search our weather history database for the weather conditions in past years. The results will help you decide how hot, cold, wet, or windy it might be!

Date:

Astronomy

Nov. 16, 2013 Rise Set
Actual Time 6:56 AM CST 4:44 PM CST
Civil Twilight 6:26 AM CST 5:14 PM CST
Nautical Twilight 5:53 AM CST 5:48 PM CST
Astronomical Twilight 5:20 AM CST 6:21 PM CST
Moon 4:20 PM CST (11/16) 5:52 AM CST (11/16)
Length of Visible Light 10h 48m
Length of Day
9h 48m
Waxing Gibbous, 99% of the Moon is Illuminated
Nov 16
Waxing Gibbous
Nov 17
Full
Nov 25
Last Quarter
Dec 2
New
Dec 9
First Quarter

Hourly Weather History & Observations

Time (CST) Temp. Windchill Dew Point Humidity Pressure Visibility Wind Dir Wind Speed Gust Speed Precip Events Conditions
12:52 AM 39.0 °F 34.8 °F 34.0 °F 82% 29.83 in 10.0 mi SE 5.8 mph - N/A   Clear
1:52 AM 37.9 °F 33.5 °F 34.0 °F 86% 29.81 in 10.0 mi SE 5.8 mph - N/A   Clear
2:52 AM 37.9 °F 32.7 °F 35.1 °F 89% 29.82 in 10.0 mi SSE 6.9 mph - N/A   Scattered Clouds
2:57 AM 39.2 °F 33.6 °F 35.6 °F 87% 29.81 in 10.0 mi SE 8.1 mph - N/A   Mostly Cloudy
3:52 AM 43.0 °F 38.8 °F 39.9 °F 89% 29.78 in 10.0 mi SE 6.9 mph - N/A   Overcast
4:52 AM 45.0 °F 39.3 °F 42.1 °F 90% 29.75 in 10.0 mi SSE 11.5 mph - N/A   Overcast
5:52 AM 46.0 °F 40.6 °F 43.0 °F 89% 29.71 in 10.0 mi SE 11.5 mph - N/A   Overcast
6:07 AM 46.4 °F 41.1 °F 44.6 °F 93% 29.69 in 10.0 mi SE 11.5 mph - N/A   Overcast
6:52 AM 46.9 °F - 45.0 °F 93% 29.70 in 10.0 mi SE 11.5 mph - N/A   Overcast
7:52 AM 48.9 °F - 46.0 °F 90% 29.68 in 10.0 mi SSE 8.1 mph - N/A   Overcast
8:52 AM 51.1 °F - 46.9 °F 86% 29.67 in 10.0 mi SSE 11.5 mph 20.7 mph N/A   Overcast
9:52 AM 52.0 °F - 48.0 °F 86% 29.63 in 10.0 mi SSE 17.3 mph 21.9 mph N/A   Overcast
10:52 AM 55.0 °F - 50.0 °F 83% 29.60 in 10.0 mi SSE 13.8 mph 25.3 mph N/A   Overcast
11:52 AM 57.9 °F - 52.0 °F 81% 29.56 in 10.0 mi South 16.1 mph 24.2 mph N/A   Overcast
12:18 PM 60.8 °F - 53.6 °F 77% 29.53 in 10.0 mi South 17.3 mph 27.6 mph N/A Thunderstorm Overcast
12:33 PM 60.8 °F - 53.6 °F 77% 29.51 in 10.0 mi SSE 18.4 mph 31.1 mph N/A   Overcast
12:43 PM 62.6 °F - 53.6 °F 72% 29.50 in 10.0 mi SSE 17.3 mph 29.9 mph N/A   Overcast
12:52 PM 62.1 °F - 54.0 °F 75% 29.51 in 10.0 mi SSE 21.9 mph 31.1 mph N/A   Overcast
1:00 PM 62.6 °F - 53.6 °F 72% 29.50 in 10.0 mi South 23.0 mph 35.7 mph N/A   Overcast
1:52 PM 61.0 °F - 55.9 °F 83% 29.48 in 10.0 mi South 19.6 mph 27.6 mph 0.00 in   Overcast
2:52 PM 61.0 °F - 55.9 °F 83% 29.47 in 10.0 mi South 18.4 mph 26.5 mph N/A   Overcast
3:52 PM 62.1 °F - 55.9 °F 80% 29.45 in 10.0 mi South 15.0 mph 25.3 mph N/A   Overcast
4:03 PM 62.6 °F - 55.4 °F 77% 29.44 in 10.0 mi South 19.6 mph 28.8 mph N/A   Scattered Clouds
4:52 PM 62.1 °F - 55.9 °F 80% 29.44 in 10.0 mi South 19.6 mph 29.9 mph N/A   Scattered Clouds
5:22 PM 60.8 °F - 55.4 °F 82% 29.45 in 10.0 mi South 16.1 mph 28.8 mph N/A   Mostly Cloudy
5:52 PM 61.0 °F - 55.9 °F 83% 29.47 in 10.0 mi South 19.6 mph 26.5 mph N/A   Mostly Cloudy
6:11 PM 60.8 °F - 55.4 °F 82% 29.47 in 10.0 mi South 18.4 mph 27.6 mph N/A   Mostly Cloudy
6:52 PM 60.1 °F - 55.9 °F 86% 29.48 in 10.0 mi South 15.0 mph 23.0 mph N/A   Mostly Cloudy
7:52 PM 60.1 °F - 55.0 °F 83% 29.49 in 10.0 mi South 11.5 mph 19.6 mph N/A   Mostly Cloudy
8:52 PM 59.0 °F - 55.0 °F 87% 29.49 in 10.0 mi South 15.0 mph 20.7 mph N/A   Mostly Cloudy
9:52 PM 57.9 °F - 55.0 °F 90% 29.48 in 10.0 mi South 12.7 mph - N/A   Scattered Clouds
10:52 PM 59.0 °F - 55.0 °F 87% 29.48 in 10.0 mi South 17.3 mph 21.9 mph N/A   Mostly Cloudy
11:52 PM 60.1 °F - 55.0 °F 83% 29.48 in 10.0 mi South 18.4 mph 24.2 mph N/A   Mostly Cloudy